Location: Peralejo
(40.5415°N, 4.1259°W)
Time: 13:02:38
(UTC+00:00)

Okean O Rocket - Pass Details

Date: 18 April 2024
Orbit: 619 x 639 km, 98.1° (Epoch: 26 May)

Event Time Altitude Azimuth Distance (km) Brightness Sun altitude
Exits shadow 19:25:04 - 131° (SE) 2,434 4.0 -5.5°
Reaches altitude 10° 19:26:19 10° 123° (ESE) 1,994 3.5 -5.7°
Maximum altitude 19:29:53 26° 68° (ENE) 1,257 2.8 -6.4°
Drops below altitude 10° 19:33:29 10° 13° (NNE) 2,016 4.3 -7.0°
Sets 19:35:58 0° 0° (N) 2,933 5.3 -7.4°
